TimeCDT,TemperatureF,Dew PointF,Humidity,Sea Level PressureIn,VisibilityMPH,Wind Direction,Wind SpeedMPH,Gust SpeedMPH,PrecipitationIn,Events,Conditions,WindDirDegrees,DateUTC
12:53 AM,48.9,39.0,69,30.14,10.0,WSW,5.8,-,N/A,,Clear,240,2013-10-13 05:53:00
1:53 AM,46.9,39.0,74,30.17,10.0,WSW,4.6,-,N/A,,Clear,250,2013-10-13 06:53:00
2:53 AM,46.9,39.9,77,30.18,10.0,West,10.4,-,N/A,,Clear,260,2013-10-13 07:53:00
3:53 AM,45.0,39.9,82,30.19,10.0,West,5.8,-,N/A,,Scattered Clouds,270,2013-10-13 08:53:00
4:17 AM,46.0,39.9,79,30.20,10.0,SW,4.6,-,N/A,,Mostly Cloudy,230,2013-10-13 09:17:00
4:28 AM,46.0,41.0,83,30.20,10.0,SW,3.5,-,N/A,,Mostly Cloudy,220,2013-10-13 09:28:00
4:53 AM,45.0,39.9,82,30.22,10.0,SSW,6.9,-,N/A,,Partly Cloudy,200,2013-10-13 09:53:00
5:53 AM,43.0,39.9,89,30.25,10.0,SW,5.8,-,N/A,,Partly Cloudy,220,2013-10-13 10:53:00
6:53 AM,46.0,41.0,83,30.27,10.0,WSW,6.9,-,N/A,,Overcast,240,2013-10-13 11:53:00
7:53 AM,46.0,42.1,86,30.30,10.0,WSW,6.9,-,N/A,,Mostly Cloudy,250,2013-10-13 12:53:00
8:53 AM,48.9,43.0,80,30.33,10.0,West,13.8,-,N/A,,Overcast,270,2013-10-13 13:53:00
9:53 AM,51.1,44.1,77,30.35,10.0,WNW,12.7,-,N/A,,Overcast,290,2013-10-13 14:53:00
10:53 AM,55.0,45.0,69,30.35,10.0,WNW,10.4,-,N/A,,Overcast,290,2013-10-13 15:53:00
11:53 AM,54.0,42.1,64,30.37,10.0,NNW,5.8,-,N/A,,Mostly Cloudy,330,2013-10-13 16:53:00
12:53 PM,55.9,39.0,53,30.36,10.0,NW,12.7,-,N/A,,Mostly Cloudy,310,2013-10-13 17:53:00
1:53 PM,57.0,39.0,51,30.36,10.0,WNW,10.4,-,N/A,,Partly Cloudy,300,2013-10-13 18:53:00
2:53 PM,57.9,37.0,46,30.35,10.0,North,11.5,-,N/A,,Scattered Clouds,360,2013-10-13 19:53:00
3:53 PM,60.1,37.0,42,30.35,10.0,NNW,8.1,-,N/A,,Partly Cloudy,340,2013-10-13 20:53:00
4:53 PM,60.1,37.0,42,30.34,10.0,Calm,Calm,-,N/A,,Clear,0,2013-10-13 21:53:00
5:53 PM,55.9,41.0,57,30.36,10.0,WNW,4.6,-,N/A,,Clear,290,2013-10-13 22:53:00
6:53 PM,50.0,39.9,68,30.39,10.0,North,3.5,-,N/A,,Clear,360,2013-10-13 23:53:00
7:53 PM,46.0,39.9,79,30.40,10.0,Calm,Calm,-,N/A,,Clear,0,2013-10-14 00:53:00
8:53 PM,42.1,39.0,89,30.41,10.0,West,3.5,-,N/A,,Clear,260,2013-10-14 01:53:00
9:53 PM,42.1,39.0,89,30.41,10.0,Calm,Calm,-,N/A,,Clear,0,2013-10-14 02:53:00
10:53 PM,41.0,37.9,89,30.41,10.0,Calm,Calm,-,N/A,,Clear,0,2013-10-14 03:53:00
11:53 PM,39.0,37.9,96,30.42,10.0,Calm,Calm,-,N/A,,Clear,0,2013-10-14 04:53:00